Location: Epalinges
(46.5518°N, 6.6683°E)
Time: 20:07:24
(UTC+00:00)

Cosmos 2237 Rocket - Pass Details

Date: 20 June 2021
Orbit: 835 x 850 km, 71.0° (Epoch: 01 August)

Event Time Altitude Azimuth Distance (km) Brightness Sun altitude
Exits shadow 00:20:06 - 257° (WSW) 3,153 4.9 -19.3°
Reaches altitude 10° 00:22:33 10° 272° (W) 2,448 4.5 -19.2°
Maximum altitude 00:26:31 19° 317° (NW) 1,879 4.4 -19.0°
Drops below altitude 10° 00:30:30 10° 2° (N) 2,457 5.8 -18.9°
Sets 00:33:41 0° 20° (NNE) 3,396 7.0 -18.8°
